Regional Weather Roundup
Issued by NWS Portland, ME

Current Version | Previous Version | Text Only | Print | Product List | Glossary Off
Versions: 1 2 3 4 5 6 7 8 9 10 11 12 13 14 15 16 17 18 19 20 21 22 23 24 25 26 27 28 29 30 31 32 33 34 35 36 37 38 39 40 41 42 43 44 45 46 47 48 49 50
000 ASUS41 KGYX 210510 RWRGYX WEATHER ROUNDUP FOR MAINE AND NEW HAMPSHIRE NATIONAL WEATHER SERVICE GRAY ME 100 AM EDT TUE AUG 21 2018 MEZ002-005-006-010-012-015-018-020-021-024-026-027-029-210600- MAINE CITY SKY/WX TMP DP RH WIND PRES REMARKS PORTLAND FAIR 58 57 97 NW5 30.19S SANFORD FAIR 52 52 100 CALM 30.19F BAR HARBOR FAIR 54 53 97 CALM 30.18F WISCASSET FAIR 54 54 100 CALM 30.20S ROCKLAND FAIR 53 52 96 CALM 30.18F FRYEBURG FAIR 54 54 100 CALM 30.20S FOG LEWISTONAUBURN N/A 55 55 100 CALM 30.20S AUGUSTA FAIR 58 57 97 CALM 30.19S WATERVILLE FAIR 57 56 96 CALM 30.17S BANGOR FAIR 59 56 89 S3 30.18F GREENVILLE N/A 58 53 84 CALM 30.18S MILLINOCKET FAIR 55 53 93 CALM 30.19S HOULTON FAIR 51 51 100 CALM 30.17S PRESQUE ISLE FAIR 52 51 97 CALM 30.18F FRENCHVILLE FAIR 61 51 70 SE7 30.17F CARIBOU FAIR 58 53 84 CALM 30.17S $$ NHZ002-005-008-009-011-012-014-210600- NEW HAMPSHIRE CITY SKY/WX TMP DP RH WIND PRES REMARKS PORTSMOUTH CLOUDY 62 60 93 CALM 30.17F ROCHESTER FAIR 57 57 100 NW5 30.18F NASHUA FAIR 59 58 96 NW6 30.20S MANCHESTER FAIR 63 59 87 N3 30.18R CONCORD FAIR 57 55 93 CALM 30.20S LACONIA FAIR 59 57 93 CALM 30.20 PLYMOUTH CLOUDY 60 58 94 CALM 30.20F BERLIN CLOUDY 51 50 96 CALM 30.20S WHITEFIELD FAIR 55 53 93 CALM 30.19F JAFFREY FAIR 56 55 97 CALM 30.22S KEENE FAIR N/A N/A N/A CALM 30.20S FOG LEBANON FAIR 60 56 86 S3 30.19S MT WASHINGTON PTCLDY 46 45 93 E10 N/A $$ VTZ005-007-008-210600- VERMONT CITY SKY/WX TMP DP RH WIND PRES REMARKS ST JOHNSBURY N/A 61 58 90 MISG 30.16F MONTPELIER FAIR 60 58 92 CALM 30.21F BURLINGTON FAIR 65 56 72 CALM 30.13S $$ MAZ007-012-024-CTZ003-RIZ002-NYZ038-NYZ072-210600- SOUTHERN NEW ENGLAND AND NY CITY SKY/WX TMP DP RH WIND PRES REMARKS BOSTON MOCLDY 67 62 84 NE8 30.17S WORCESTER FAIR 59 58 96 N5 30.19S NANTUCKET CLOUDY 66 65 96 NE13 30.12F PROVIDENCE FAIR 63 61 93 N7 30.16F HARTFORD FAIR 62 59 90 NE3 30.17S ALBANY FAIR 67 59 75 S5 30.15S NEW YORK CITY MOCLDY 71 63 75 SE7 30.15R $$ ANZ081-ANZ082-ANZ150-NHZ014-MEZ023>029-210600- COASTAL MARINE OBSERVATIONS STATION/POSITION TIME TEMP WIND PRES WAVE AIR SEA DIR/SP/G HT/PER (UTC) (F) (DEG/KT/KT) (MB) (FT/S) MOUNT DESERT ROC 0500 60 350/ 6/ 7 1021.7F MATINICUS ROCK 0400 58 360/ 6/ 6 1021.9F ISLE OF SHOALS 0400 65 80/ 5/ 5 1021.4F JEFFREYS LEDGE 0436 69 N/A 4/ 7 $$ .............KEY.............. WCI - WIND CHILL TC - TEMPERATURE IN CELSIUS VSB - VISIBILITY IN MILES HX - HEAT INDEX FAIR- INDICATES FEW OR NO CLOUDS BELOW 12,000 FT, WITH NO SIGNIFICANT WEATHER AND/OR OBSTRUCTIONS TO VISIBILITY.

USA.gov is the U.S. government's official web portal to all federal, state and local government web resources and services.